152P/Helin-Lawrence (2022)

Japanese version
Home page
Updated on July 18, 2021

---------------------------------------------------------------------

* Profile

* Pictures

* Orbital Elements

Epoch 2021 July 5.0 TT = JDT 2459400.5
T 2022 Jan. 13.53570 TT                                 Rudenko
q   3.0950388            (2000.0)            P               Q
n   0.10401365     Peri.  163.91169     -0.24166466     +0.95508533
a   4.4779149      Node    91.86083     -0.90813224     -0.16033690
e   0.3088214      Incl.    9.87996     -0.34189767     -0.24920692
P   9.48
From 979 observations 1993 Apr. 22-2021 June 29, mean residual 0".9.
     Nongravitational parameters A1 = +0.05, A2 = +0.0151.

* Finding Charts

* Magnitudes Graph

        m1 = 3.5 + 5 log d + 22.0 log r(t - 100)

---------------------------------------------------------------------

The orbital elements are published on M.P.E.C. 2021-N06.
The charts are made with StellaNavigator Ver.10 (AstroArts).
The magnitudes graphs are made with Comet for Windows.

---------------------------------------------------------------------

Copyright(C) Seiichi Yoshida (comet@aerith.net). All rights reserved.